Location: Observatory
(49.4490°N, 2.6360°W)
Time: 10:40:51
(UTC+01:00)

CAS-4A - Visible Passes

Search period start: 30 April 2025 00:00
Search period end: 10 May 2025 00:00
Orbit: 376 x 404 km, 43.0° (Epoch: 29 April)

Date Brightness Start Highest point End Pass type
(mag) Time Alt. Az. Time Alt. Az. Time Alt. Az.
30 Apr ? 04:54:30 12° SW 04:56:44 22° S 04:59:17 10° ESE visible
01 May ? 03:59:10 18° SSE 03:59:10 18° SSE 04:01:24 10° ESE visible
02 May ? 04:36:00 17° SW 04:37:37 25° S 04:40:17 10° ESE visible
03 May ? 03:40:27 20° SSE 03:40:27 20° SSE 03:42:14 10° ESE visible
04 May ? 04:17:05 22° SSW 04:17:57 25° S 04:20:37 10° SE visible
05 May ? 03:21:24 16° SE 03:21:24 16° SE 03:22:24 10° ESE visible
05 May ? 04:53:41 10° WSW 04:56:02 19° SSW 04:58:22 10° SE visible
06 May ? 03:57:59 22° S 03:57:59 22° S 04:00:16 10° SE visible
07 May ? 04:34:39 14° SW 04:35:27 15° SSW 04:37:19 10° SSE visible
08 May ? 03:39:11 10° SSE 03:39:11 10° SSE 03:39:13 10° SSE visible
